Location: The Saddle
(36.8333°N, 80.3417°W)
Time: 07:27:42
(UTC-04:00)

Tiros 1 - All Passes

Search period start: 08 July 2025 00:00
Search period end: 18 July 2025 00:00
Orbit: 619 x 651 km, 48.4° (Epoch: 07 July)

Date Brightness Start Highest point End Pass type
(mag) Time Alt. Az. Time Alt. Az. Time Alt. Az.
08 Jul - 00:55:48 10° W 01:00:03 32° NNW 01:04:18 10° NE visible
08 Jul - 02:39:37 10° NW 02:43:05 20° N 02:46:32 10° NE visible
08 Jul - 04:22:02 10° NW 04:26:10 29° NNE 04:30:15 10° E visible
08 Jul - 06:03:47 10° WNW 06:08:29 78° SW 06:13:07 10° SE daylight
08 Jul - 07:47:52 10° WSW 07:49:47 12° SW 07:51:41 10° SSW daylight
08 Jul - 21:54:34 10° S 21:58:23 25° SE 22:02:13 10° ENE visible
08 Jul - 23:35:21 10° WSW 23:40:02 62° NNW 23:44:45 10° NE visible
09 Jul - 01:18:53 10° WNW 01:22:41 23° NNW 01:26:29 10° NE visible
09 Jul - 03:02:16 10° NW 03:05:52 21° N 03:09:26 10° ENE visible
09 Jul - 04:44:08 10° NW 04:48:41 46° NNE 04:53:09 10° ESE visible
09 Jul - 06:26:16 10° WNW 06:30:32 36° SW 06:34:46 10° SSE daylight
09 Jul - 22:15:45 10° SW 22:20:21 54° SE 22:24:59 10° ENE visible
09 Jul - 23:58:05 10° W 00:02:27 36° NNW 00:06:50 10° NE visible
10 Jul - 01:41:56 10° NW 01:45:25 20° N 01:48:55 10° NE visible
10 Jul - 03:24:33 10° NW 03:28:33 26° NNE 03:32:32 10° ENE visible
10 Jul - 05:06:16 10° NW 05:10:59 86° NNE 05:15:39 10° SE visible
10 Jul - 06:49:35 10° W 06:52:25 16° SW 06:55:13 10° SSW daylight
10 Jul - 20:57:35 10° S 21:00:58 20° SE 21:04:23 10° E daylight
10 Jul - 22:37:47 10° WSW 22:42:31 74° NNW 22:47:16 10° NE visible
11 Jul - 00:21:08 10° WNW 00:25:03 25° NNW 00:28:59 10° NE visible
11 Jul - 02:04:40 10° NW 02:08:12 20° N 02:11:43 10° NE visible
11 Jul - 03:46:40 10° NW 03:51:07 40° NNE 03:55:31 10° E visible
11 Jul - 05:28:38 10° WNW 05:33:06 44° SW 05:37:31 10° SSE visible
11 Jul - 21:18:26 10° SSW 21:22:54 43° SE 21:27:23 10° ENE visible
11 Jul - 23:00:24 10° W 23:04:53 41° NNW 23:09:23 10° NE visible
12 Jul - 00:44:13 10° NW 00:47:46 20° N 00:51:19 10° NE visible
12 Jul - 02:27:03 10° NW 02:30:56 24° NNE 02:34:48 10° ENE visible
12 Jul - 04:08:46 10° NW 04:13:29 72° NNE 04:18:09 10° ESE visible
12 Jul - 05:51:36 10° W 05:55:02 20° SW 05:58:25 10° S daylight
12 Jul - 20:00:48 10° SSE 20:03:35 16° SE 20:06:23 10° E daylight
12 Jul - 21:40:16 10° SW 21:45:00 89° NW 21:49:46 10° NE visible
12 Jul - 23:23:22 10° WNW 23:27:25 27° NNW 23:31:29 10° NE visible
13 Jul - 01:07:03 10° NW 01:10:33 20° N 01:14:02 10° NE visible
13 Jul - 02:49:11 10° NW 02:53:32 35° NNE 02:57:51 10° E visible
13 Jul - 04:31:03 10° WNW 04:35:39 56° SW 04:40:13 10° SE visible
13 Jul - 20:21:11 10° SSW 20:25:27 35° SE 20:29:45 10° ENE daylight
13 Jul - 22:02:44 10° WSW 22:07:18 47° NNW 22:11:54 10° NE visible
13 Jul - 23:46:28 10° WNW 23:50:07 21° N 23:53:45 10° NE visible
14 Jul - 01:29:30 10° NW 01:33:18 23° NNE 01:37:04 10° ENE visible
14 Jul - 03:11:16 10° NW 03:15:57 60° NNE 03:20:35 10° ESE visible
14 Jul - 04:53:47 10° WNW 04:57:37 25° SW 05:01:26 10° S visible
14 Jul - 19:04:21 10° SSE 19:06:12 12° SE 19:08:03 10° ESE daylight
14 Jul - 20:42:48 10° SW 20:47:30 76° SE 20:52:15 10° ENE daylight
14 Jul - 22:25:38 10° W 22:29:48 30° NNW 22:33:59 10° NE visible
15 Jul - 00:09:24 10° NW 00:12:53 20° N 00:16:21 10° NE visible
15 Jul - 01:51:42 10° NW 01:55:56 31° NNE 02:00:08 10° E visible
15 Jul - 03:33:28 10° WNW 03:38:10 69° SW 03:42:49 10° SE visible
15 Jul - 05:18:25 10° WSW 05:19:25 11° SW 05:20:25 10° SW visible
15 Jul - 19:24:02 10° SSW 19:28:01 28° SE 19:32:03 10° ENE daylight
15 Jul - 21:05:07 10° WSW 21:09:44 56° NNW 21:14:25 10° NE visible
15 Jul - 22:48:43 10° WNW 22:52:27 22° N 22:56:12 10° NE visible
16 Jul - 00:31:57 10° NW 00:35:39 22° N 00:39:19 10° ENE visible
16 Jul - 02:13:46 10° NW 02:18:24 51° NNE 02:22:59 10° ESE visible
16 Jul - 03:56:02 10° WNW 04:00:12 31° SW 04:04:19 10° SSE visible
16 Jul - 19:45:23 10° SW 19:50:00 62° SE 19:54:41 10° ENE daylight
16 Jul - 21:27:54 10° W 21:32:11 33° NNW 21:36:30 10° NE visible
16 Jul - 23:11:43 10° NW 23:15:12 20° N 23:18:42 10° NE visible
17 Jul - 00:54:11 10° NW 00:58:19 28° NNE 01:02:24 10° ENE visible
17 Jul - 02:35:55 10° NW 02:40:41 84° SW 02:45:22 10° SE visible
17 Jul - 04:19:38 10° W 04:22:02 14° SW 04:24:25 10° SSW night (unlit)
17 Jul - 18:26:57 10° S 18:30:35 22° SE 18:34:15 10° E daylight
17 Jul - 20:07:31 10° WSW 20:12:12 66° NNW 20:16:56 10° NE daylight
17 Jul - 21:50:58 10° WNW 21:54:48 24° NNW 21:58:40 10° NE visible
17 Jul - 23:34:23 10° NW 23:37:58 21° N 23:41:34 10° ENE visible
